IRIDIUM 117

Last updated on Tue Sep 22 2026 00:03:21 GMT+0000 (Coordinated Universal Time)

1 42808U 17039F 26264.40383045 .00000039 00000+0 69511-5 0 9997 2 42808 86.3971 313.3940 0002241 92.3493 267.7960 14.34217632483768
UTC large
Height (km)
Speed (km/s)
/
Latitude / Longitude
Inclination (degrees)
Orbital Period (minutes)
Azimuth
Elevation
Range (km)
Doppler Factor

Next 0 passes for location: London (51.5072 / 0.1276)

No passes found over London.
IRIDIUM 117